Terminal Aerodrome Forecast
Issued by NWS

Home | Current Version | Previous Version | Text Only | Print | Product List | Glossary On
Versions: 1 2 3 4 5 6 7 8 9 10 11 12
259
FTUS42 KMLB 261121
TAFFPR
TAF
KFPR 261121Z 2612/2712 16006KT P6SM SCT025
     FM261700 12011KT P6SM VCTS BKN035CB
     FM262100 13012KT P6SM VCSH SCT035 BKN120=

USA.gov is the U.S. government's official web portal to all federal, state and local government web resources and services.